Weather History for KUKT - December, 2012

Change the Weather History Date:

Sunday, December 16, 2012

  Actual Average (KABE) Record (KABE)
Temperature  
Mean Temperature 44 °F 32 °F  
Max Temperature 50 °F 40 °F 60 °F (1971)
Min Temperature 39 °F 24 °F 1 °F (1951)
Degree Days  
Heating Degree Days 20 33  
Month to date heating degree days 489  
Since 1 July heating degree days 1669  
Cooling Degree Days 0 0  
Month to date cooling degree days 0  
Year to date cooling degree days 757  
Moisture  
Dew Point 41 °F    
Average Humidity 89    
Maximum Humidity 100    
Minimum Humidity 81    
Precipitation  
Precipitation 0.07 in 0.12 in 1.30 in (2005)
Month to date precipitation 2.04  
Year to date precipitation 43.81  
Snow  
Snow 0.00 in 0.20 in 4.50 in (1973)
Month to date snowfall 2.2  
Since 1 July snowfall 2.9  
Snow Depth -    
Sea Level Pressure  
Sea Level Pressure 30.01 in    
Wind  
Wind Speed 1 mph (ENE)    
Max Wind Speed 8 mph    
Max Gust Speed -    
Visibility 8 miles    
Events      
T = Trace of Precipitation, MM = Missing Value Source: NWS Daily Summary

Daily Weather History Graph

Daily Weather History Graph

Search for Another Location

Airport or City:

Trip Planner

Search our weather history database for the weather conditions in past years. The results will help you decide how hot, cold, wet, or windy it might be!

Date:

Astronomy

Dec. 16, 2012 Rise Set
Actual Time 7:18 AM EST 4:36 PM EST
Civil Twilight 6:47 AM EST 5:07 PM EST
Nautical Twilight 6:13 AM EST 5:41 PM EST
Astronomical Twilight 5:40 AM EST 6:14 PM EST
Moon 9:50 AM EST (12/16) 8:48 PM EST (12/16)
Length of Visible Light 10h 19m
Length of Day
9h 17m
Waxing Crescent, 16% of the Moon is Illuminated
Dec 16
Waxing Crescent
Dec 20
First Quarter
Dec 28
Full
Jan 4
Last Quarter
Jan 11
New

Hourly Weather History & Observations

Time (EST) Temp. Windchill Dew Point Humidity Pressure Visibility Wind Dir Wind Speed Gust Speed Precip Events Conditions
12:10 AM 41.0 °F - 35.6 °F 81% 30.18 in 10.0 mi Calm Calm - N/A   Overcast
12:30 AM 39.2 °F - 35.6 °F 87% 30.18 in 10.0 mi Calm Calm - N/A   Overcast
12:50 AM 39.2 °F - 35.6 °F 87% 30.18 in 10.0 mi Calm Calm - N/A   Overcast
1:10 AM 39.2 °F - 35.6 °F 87% 30.17 in 10.0 mi Calm Calm - N/A   Overcast
1:50 AM 39.2 °F - 35.6 °F 87% 30.15 in 10.0 mi Calm Calm - N/A   Partly Cloudy
2:10 AM 39.2 °F - 35.6 °F 87% 30.15 in 10.0 mi Calm Calm - N/A   Clear
2:30 AM 39.2 °F - 35.6 °F 87% 30.14 in 10.0 mi Calm Calm - N/A   Partly Cloudy
3:10 AM 39.2 °F - 35.6 °F 87% 30.13 in 10.0 mi Calm Calm - N/A   Mostly Cloudy
3:30 AM 39.2 °F - 35.6 °F 87% 30.11 in 10.0 mi Calm Calm - N/A   Overcast
3:50 AM 39.2 °F - 35.6 °F 87% 30.11 in 10.0 mi Calm Calm - N/A   Mostly Cloudy
4:10 AM 39.2 °F - 35.6 °F 87% 30.10 in 10.0 mi Calm Calm - N/A   Mostly Cloudy
4:30 AM 41.0 °F - 35.6 °F 81% 30.11 in 10.0 mi Calm Calm - N/A   Scattered Clouds
4:50 AM 41.0 °F - 37.4 °F 87% 30.09 in 10.0 mi Calm Calm - N/A   Mostly Cloudy
5:10 AM 41.0 °F - 37.4 °F 87% 30.09 in 10.0 mi Calm Calm - N/A   Mostly Cloudy
5:30 AM 41.0 °F - 37.4 °F 87% 30.09 in 10.0 mi Calm Calm - N/A   Overcast
5:50 AM 41.0 °F - 37.4 °F 87% 30.09 in 10.0 mi Calm Calm - N/A   Overcast
6:10 AM 41.0 °F - 37.4 °F 87% 30.09 in 10.0 mi Calm Calm - N/A   Overcast
6:30 AM 41.0 °F - 37.4 °F 87% 30.09 in 10.0 mi Calm Calm - N/A   Overcast
6:50 AM 41.0 °F - 37.4 °F 87% 30.08 in 10.0 mi Calm Calm - N/A   Overcast
7:10 AM 41.0 °F - 37.4 °F 87% 30.08 in 10.0 mi Calm Calm - N/A   Overcast
7:30 AM 41.0 °F - 37.4 °F 87% 30.07 in 10.0 mi Calm Calm - N/A   Overcast
7:50 AM 41.0 °F - 37.4 °F 87% 30.07 in 10.0 mi Calm Calm - N/A   Overcast
8:10 AM 42.8 °F 39.3 °F 39.2 °F 87% 30.06 in 9.0 mi East 5.8 mph - N/A   Overcast
8:30 AM 42.8 °F - 39.2 °F 87% 30.06 in 10.0 mi Calm Calm - N/A   Overcast
8:50 AM 44.6 °F - 39.2 °F 81% 30.06 in 10.0 mi Calm Calm - N/A   Overcast
9:10 AM 44.6 °F - 39.2 °F 81% 30.06 in 9.0 mi Calm Calm - N/A   Overcast
9:30 AM 44.6 °F - 41.0 °F 87% 30.05 in 9.0 mi Calm Calm - N/A   Overcast
9:50 AM 46.4 °F - 41.0 °F 81% 30.06 in 9.0 mi Calm Calm - N/A   Mostly Cloudy
10:10 AM 46.4 °F - 41.0 °F 81% 30.05 in 9.0 mi Calm Calm - N/A   Mostly Cloudy
10:30 AM 48.2 °F - 42.8 °F 82% 30.04 in 10.0 mi Calm Calm - N/A   Mostly Cloudy
10:50 AM 48.2 °F - 42.8 °F 82% 30.04 in 9.0 mi Calm Calm - N/A   Mostly Cloudy
11:10 AM 48.2 °F - 44.6 °F 87% 30.02 in 9.0 mi Calm Calm - N/A   Overcast
11:30 AM 48.2 °F - 44.6 °F 87% 30.01 in 9.0 mi Calm Calm - N/A   Overcast
11:50 AM 48.2 °F - 44.6 °F 87% 30.00 in 9.0 mi East 4.6 mph - N/A   Overcast
12:10 PM 48.2 °F - 44.6 °F 87% 29.99 in 9.0 mi Calm Calm - N/A   Mostly Cloudy
12:30 PM 50.0 °F - 44.6 °F 82% 29.99 in 9.0 mi Calm Calm - N/A   Mostly Cloudy
12:50 PM 50.0 °F - 44.6 °F 82% 29.98 in 9.0 mi Calm Calm - N/A   Overcast
1:10 PM 50.0 °F - 44.6 °F 82% 29.97 in 10.0 mi Calm Calm - N/A   Overcast
1:30 PM 50.0 °F - 44.6 °F 82% 29.97 in 10.0 mi Calm Calm - N/A   Overcast
1:50 PM 50.0 °F - 44.6 °F 82% 29.96 in 10.0 mi Calm Calm - N/A   Overcast
2:10 PM 50.0 °F - 44.6 °F 82% 29.95 in 9.0 mi East 3.5 mph - N/A   Overcast
2:30 PM 48.2 °F - 44.6 °F 87% 29.94 in 10.0 mi East 4.6 mph - N/A   Unknown
2:50 PM 48.2 °F - 44.6 °F 87% 29.94 in 10.0 mi Calm Calm - N/A   Overcast
3:10 PM 48.2 °F - 44.6 °F 87% 29.95 in 9.0 mi Calm Calm - N/A   Overcast
3:30 PM 48.2 °F - 46.4 °F 93% 29.94 in 8.0 mi East 5.8 mph - N/A   Overcast
3:50 PM 48.2 °F - 46.4 °F 93% 29.94 in 5.0 mi Calm Calm - N/A   Overcast
4:10 PM 46.4 °F 44.3 °F 46.4 °F 100% 29.94 in 4.0 mi ENE 4.6 mph - N/A   Overcast
4:30 PM 46.4 °F 45.2 °F 46.4 °F 100% 29.94 in 5.0 mi ENE 3.5 mph - N/A   Overcast
4:50 PM 46.4 °F - 46.4 °F 100% 29.93 in 4.0 mi Calm Calm - N/A   Overcast
5:10 PM 46.4 °F 42.9 °F 46.4 °F 100% 29.93 in 1.5 mi ENE 6.9 mph - N/A   Overcast
5:30 PM 46.4 °F - 44.6 °F 93% 29.92 in 2.0 mi Calm Calm - N/A   Overcast
5:50 PM 46.4 °F 42.9 °F 44.6 °F 93% 29.93 in 2.0 mi East 6.9 mph - N/A   Overcast
6:10 PM 46.4 °F 42.4 °F 44.6 °F 93% 29.93 in 2.0 mi East 8.1 mph - N/A   Overcast
6:30 PM 44.6 °F 41.4 °F 44.6 °F 100% 29.93 in 1.8 mi East 5.8 mph - N/A   Overcast
6:50 PM 44.6 °F - 44.6 °F 100% 29.92 in 2.0 mi Calm Calm - N/A   Overcast
7:10 PM 44.6 °F 42.2 °F 44.6 °F 100% 29.91 in 2.0 mi ENE 4.6 mph - N/A   Overcast
7:30 PM 44.6 °F 43.1 °F 42.8 °F 93% 29.92 in 2.5 mi ENE 3.5 mph - N/A   Overcast
7:50 PM 44.6 °F 43.1 °F 42.8 °F 93% 29.92 in 2.5 mi East 3.5 mph - N/A   Overcast
8:10 PM 44.6 °F - 42.8 °F 93% 29.91 in 2.5 mi Calm Calm - N/A   Overcast
8:30 PM 42.8 °F - 42.8 °F 100% 29.92 in 2.5 mi Calm Calm - 0.01 in   Overcast
8:50 PM 42.8 °F 40.1 °F 42.8 °F 100% 29.91 in 3.0 mi East 4.6 mph - 0.01 in   Overcast
9:10 PM 42.8 °F - 42.8 °F 100% 29.91 in 3.0 mi Calm Calm - N/A   Overcast
9:30 PM 42.8 °F - 41.0 °F 93% 29.91 in 2.5 mi Calm Calm - 0.04 in   Overcast
9:50 PM 42.8 °F 41.1 °F 41.0 °F 93% 29.91 in 5.0 mi ENE 3.5 mph - 0.04 in   Overcast
10:10 PM 42.8 °F 41.1 °F 41.0 °F 93% 29.91 in 4.0 mi ENE 3.5 mph - 0.01 in   Overcast
10:30 PM 42.8 °F - 41.0 °F 93% 29.91 in 5.0 mi Calm Calm - 0.01 in   Overcast
10:50 PM 42.8 °F - 41.0 °F 93% 29.90 in 5.0 mi Calm Calm - 0.01 in   Overcast
11:10 PM 42.8 °F - 41.0 °F 93% 29.90 in 8.0 mi Calm Calm - N/A   Overcast
11:30 PM 42.8 °F 40.1 °F 41.0 °F 93% 29.89 in 8.0 mi East 4.6 mph - 0.01 in   Overcast
11:50 PM 42.8 °F - 41.0 °F 93% 29.89 in 9.0 mi Calm Calm - 0.01 in   Overcast